Theta_e
323 329 334 337 341 342 344 344 346 347 347 348 348 348 348 348 348 348 347 347 346 347 348 348 348 347 346 345 345 345 344 345 345 345 347 350 351 350 351 354 352 348 353
323 327 330 332 335 338 340 343 343 343 344 344 344 344 343 344 344 345 344 344 345 346 346 346 347 347 346 345 344 345 345 345 346 346 344 345 349 351 349 352 353 349 352
320 324 326 328 331 333 335 337 336 336 337 339 340 340 340 340 341 341 340 340 341 343 345 345 346 346 346 346 345 344 345 347 346 345 342 339 347 352 349 352 353 352 351
318 321 322 325 327 329 330 330 330 330 332 333 333 333 336 335 335 336 335 336 337 339 341 343 343 343 343 344 344 344 344 345 346 343 338 332 342 352 348 349 352 352 352
316 319 319 321 323 325 325 325 324 325 325 325 325 328 330 327 326 326 328 329 330 332 334 335 337 338 338 339 340 342 342 343 343 338 340 337 339 347 349 349 351 351 350
314 316 317 319 320 321 322 321 321 321 320 320 320 322 322 320 319 319 320 321 322 323 325 327 329 329 330 334 337 338 340 338 339 337 337 339 337 345 349 351 351 350 348
310 312 314 315 316 317 318 318 317 317 317 316 316 317 317 316 315 315 316 317 318 318 319 320 321 323 327 329 332 334 333 331 333 336 337 338 340 344 343 346 350 351 351
306 309 309 310 311 313 313 313 314 314 314 313 312 312 312 312 312 312 313 314 315 315 316 316 317 319 319 319 320 323 323 323 327 332 336 338 340 343 343 344 345 350 351
303 304 305 306 307 309 309 309 310 310 309 309 308 307 307 308 307 307 307 310 311 312 313 313 314 315 315 314 313 313 314 315 318 329 332 334 338 340 341 342 343 345 349
302 302 303 303 303 305 305 305 306 305 305 304 304 302 301 304 303 303 303 306 308 308 310 311 311 312 312 311 310 310 310 313 319 329 332 333 338 339 340 341 342 342 346
300 301 302 302 303 303 303 301 302 301 301 300 302 300 304 302 302 302 302 303 305 305 307 308 309 309 308 310 311 310 312 309 311 315 323 330 332 335 338 338 340 341 343
299 300 301 301 302 301 299 302 303 301 302 302 302 302 301 301 300 301 303 302 303 302 304 306 307 307 307 304 305 309 306 306 306 308 311 324 325 330 334 335 337 340 342
301 300 299 300 301 301 300 302 302 302 302 302 301 301 301 300 301 300 300 300 301 302 300 300 301 301 302 303 303 304 304 305 306 306 308 315 313 318 323 330 333 336 339
301 300 299 300 300 301 301 301 301 301 301 300 299 299 300 299 299 298 298 298 299 299 298 298 300 300 300 301 302 302 303 303 304 305 306 311 310 312 315 320 327 332 335
301 300 299 299 299 300 300 300 300 299 299 299 298 297 297 297 296 297 296 296 296 296 295 295 296 296 297 298 299 300 300 301 302 303 305 308 310 309 312 315 319 326 332
301 299 299 298 299 299 299 299 299 298 298 298 297 296 295 296 295 295 295 295 295 294 294 294 294 294 295 297 296 297 298 299 301 302 303 304 308 309 310 312 315 317 324
301 300 298 298 298 298 298 298 298 298 297 297 295 294 294 294 293 293 293 293 293 293 293 293 293 294 293 294 294 295 297 298 299 299 301 302 304 307 309 309 311 314 316
301 299 298 297 297 297 297 297 297 296 296 295 295 295 293 292 292 292 292 292 292 292 292 292 291 291 292 292 292 294 295 296 296 297 298 300 302 303 306 306 308 310 312
300 298 297 296 295 296 296 296 296 296 295 295 294 293 292 291 291 291 291 291 291 291 291 291 290 290 290 290 291 292 293 293 295 296 297 299 301 302 303 306 308 308 308
300 299 297 296 295 296 296 295 294 294 294 294 293 292 291 291 290 290 290 290 290 289 289 290 289 289 289 289 289 289 291 293 294 295 296 298 301 302 303 304 304 305 308
300 298 296 295 295 295 294 293 293 292 293 292 293 291 290 290 289 289 289 289 289 288 288 288 288 287 288 289 287 288 289 292 294 297 298 300 299 298 302 303 304 304 306
297 296 295 295 295 294 295 295 294 293 294 293 292 291 290 289 288 288 287 287 288 287 287 288 288 286 287 288 284 284 285 288 295 291 292 293 296 297 296 300 301 301 304
296 295 295 295 295 294 295 294 292 292 290 289 290 290 290 289 288 287 287 287 286 287 286 287 287 286 284 286 286 283 282 282 283 290 290 291 293 294 293 294 296 298 299
296 297 295 295 294 294 294 292 290 289 288 290 292 291 289 288 287 287 287 286 286 286 286 286 286 285 285 283 285 286 285 284 280 279 287 289 290 290 292 292 294 295 297
297 296 295 294 294 294 294 291 290 289 291 292 289 288 287 288 287 286 286 285 285 286 286 285 285 285 285 283 283 283 284 284 283 281 278 282 286 288 290 291 291 292 295
297 296 294 293 292 293 292 291 291 290 290 289 288 287 287 287 286 286 285 285 285 284 284 285 284 284 283 283 283 283 282 280 280 281 280 281 281 283 286 286 286 288 289
Wind_Speed
6 7 9 9 11 11 12 13 14 13 12 13 13 12 11 11 11 10 10 9 9 8 9 9 8 8 8 9 10 11 11 11 11 11 12 10 10 8 8 5 5 8 5
5 7 10 9 10 12 13 14 13 14 13 12 12 12 11 12 11 12 12 11 10 9 9 9 9 10 8 7 8 9 10 10 8 9 9 10 11 10 5 6 6 9 7
6 5 10 9 10 11 11 12 13 13 12 13 12 12 12 12 13 13 13 14 13 13 13 12 11 11 11 10 8 8 10 10 8 8 11 8 8 8 4 3 7 7 9
6 7 9 8 10 10 11 12 12 12 13 14 14 14 13 13 14 14 16 15 16 15 15 15 15 14 14 13 11 10 10 10 8 10 9 8 10 5 2 3 6 7 8
6 7 9 8 10 10 11 12 11 12 13 13 13 13 14 14 14 13 14 15 15 15 16 16 16 16 17 16 16 14 13 12 9 10 9 5 6 7 1 3 7 7 7
7 9 9 9 9 9 10 11 11 12 12 12 12 12 13 13 14 14 14 14 14 14 14 15 16 17 15 15 16 15 15 17 15 9 8 9 6 8 9 7 6 8 7
8 9 9 8 8 9 9 10 10 11 12 12 12 12 12 13 13 13 14 16 16 16 17 17 17 17 17 17 16 16 15 17 12 11 9 7 8 7 9 12 12 10 8
9 7 8 8 8 8 9 9 10 11 11 12 12 12 13 13 13 13 14 15 15 15 16 16 16 16 16 17 16 16 16 15 12 11 11 7 7 9 12 12 14 13 11
9 8 7 7 9 8 9 9 10 10 11 11 12 11 11 12 12 13 13 14 14 14 14 14 15 15 15 15 14 14 16 15 12 9 10 6 6 4 10 13 14 15 14
8 7 6 6 5 6 7 8 9 9 9 10 10 8 5 8 8 9 12 14 13 14 13 14 14 15 15 14 12 13 17 19 11 9 8 6 13 11 12 15 16 16 15
8 8 8 7 7 6 7 7 8 7 6 4 5 3 2 5 7 8 10 13 13 16 14 16 15 15 14 10 10 11 14 6 9 8 7 10 12 13 15 16 17 17 16
14 12 9 8 7 7 5 5 4 3 3 4 5 5 4 6 6 6 6 10 12 14 13 15 15 15 13 10 8 10 6 9 7 7 6 11 16 17 17 18 19 19 18
15 12 12 10 9 8 5 4 3 2 2 3 5 5 5 4 5 5 5 6 7 10 8 11 10 8 11 9 8 9 10 9 6 6 9 12 17 18 20 22 21 21 21
17 15 13 11 9 8 5 4 4 3 2 2 3 4 3 3 5 6 5 7 6 6 8 8 5 8 10 11 11 11 11 9 7 6 8 12 15 18 20 21 23 23 23
18 16 15 13 11 9 8 5 4 4 3 3 2 4 4 4 4 4 5 5 5 6 7 8 8 8 9 10 10 11 12 11 11 7 6 13 16 20 21 21 22 23 24
17 17 15 14 12 10 8 7 5 4 4 3 2 3 4 3 3 3 3 4 5 6 7 7 8 8 7 8 9 10 11 11 11 12 8 9 16 19 21 21 21 23 25
16 17 17 15 13 12 10 8 6 5 5 4 3 3 3 3 4 4 4 4 5 6 7 7 8 8 8 8 10 9 9 10 11 13 11 10 10 14 17 21 21 21 23
18 18 17 13 14 13 11 9 6 6 5 4 3 2 3 3 4 3 3 4 5 5 6 6 7 8 8 8 8 8 9 10 13 14 12 10 9 9 11 18 20 21 22
20 19 17 16 15 13 11 8 7 7 5 4 3 3 4 2 3 3 3 4 5 5 6 7 7 8 8 8 9 9 10 11 12 11 13 12 12 10 8 13 17 17 22
19 18 18 15 15 13 8 6 6 6 5 4 4 3 4 2 1 2 3 4 4 5 6 6 8 8 9 9 11 12 11 11 10 10 10 9 9 9 10 10 8 9 17
18 18 18 17 15 11 8 7 6 7 6 5 5 5 4 3 1 2 3 4 4 5 7 8 7 9 8 9 9 9 12 13 13 8 9 6 7 11 10 9 7 7 8
18 17 18 18 17 14 9 8 5 6 5 5 5 5 4 3 2 3 5 5 6 6 9 8 7 7 7 4 6 9 7 7 4 9 9 10 10 6 11 10 11 13 11
20 20 19 19 18 16 14 9 6 4 3 5 6 5 5 4 4 6 7 6 6 7 8 7 7 8 7 6 6 3 6 6 14 5 8 12 9 6 9 12 14 14 15
19 17 19 19 18 16 16 12 15 9 7 6 4 4 4 5 6 7 7 6 7 7 9 7 5 6 7 8 6 5 8 9 6 16 3 8 12 11 10 11 13 14 14
18 18 18 18 17 16 16 15 12 11 7 5 6 6 6 6 7 6 6 7 8 7 8 8 8 8 7 7 7 6 8 8 10 8 18 15 10 10 12 12 13 15 17
15 16 16 18 17 16 17 17 15 13 11 8 7 6 5 5 4 6 7 7 7 8 9 8 8 10 9 9 7 8 8 8 7 8 11 20 22 14 12 12 14 14 14
Wind_Direction
78 63 20 27 33 41 42 48 52 60 65 64 61 59 55 52 46 41 35 30 21 15 13 14 13 22 23 12 3 358 354 350 349 343 341 328 306 302 310 321 304 286 218
94 76 49 34 39 39 45 48 51 52 55 57 53 52 44 45 46 48 43 33 25 15 7 5 2 2 13 14 0 352 349 348 344 338 333 309 263 245 266 316 302 294 325
94 81 76 47 59 56 46 50 50 48 47 46 47 45 42 39 35 29 25 20 16 12 9 7 5 8 12 10 355 353 346 338 337 338 316 281 277 177 198 311 300 284 287
91 77 68 54 67 68 69 62 54 51 52 50 46 41 42 39 35 32 25 22 20 14 9 5 1 4 3 359 353 352 349 353 344 332 308 311 316 104 161 276 287 278 271
103 94 79 73 73 75 76 75 70 66 63 59 53 52 52 46 40 34 33 29 19 13 9 7 2 4 2 357 349 345 342 341 343 309 301 309 320 315 269 292 293 263 239
123 115 98 85 84 87 86 82 77 72 69 67 64 60 55 46 41 34 30 26 20 13 7 3 0 355 352 352 354 347 354 347 330 309 311 314 301 313 335 312 296 290 282
140 126 107 91 90 89 87 82 80 77 74 69 63 60 58 52 44 35 29 24 17 10 7 3 359 354 358 354 340 349 357 352 328 308 296 287 304 16 336 317 299 287 268
145 137 125 100 92 90 85 82 79 74 71 68 64 59 56 53 47 42 35 26 19 14 7 2 356 354 353 348 344 340 343 339 321 306 300 293 293 310 306 305 301 296 277
151 157 154 137 111 91 84 82 82 79 74 66 62 60 60 51 46 40 35 25 21 14 7 3 357 352 344 338 336 336 332 319 300 289 282 285 290 319 302 304 303 299 291
167 166 162 158 158 138 116 93 93 88 80 70 62 62 59 79 48 51 30 24 22 14 8 4 356 350 341 331 331 334 326 307 279 326 312 306 6 332 306 298 299 299 296
186 184 175 176 172 154 137 126 126 112 102 103 114 66 160 56 38 40 41 22 16 11 6 0 355 346 340 338 328 340 304 326 336 308 295 306 348 328 312 298 295 293 291
194 191 186 184 179 169 159 156 137 130 84 69 49 42 36 42 42 21 41 21 13 12 1 358 354 348 357 346 341 335 340 334 308 299 296 345 336 316 305 298 295 292 289
194 189 188 183 178 181 166 174 166 159 147 99 59 38 40 38 23 25 18 13 5 13 3 356 352 357 345 339 331 332 331 325 317 309 306 329 316 304 301 295 285 289 288
197 192 190 182 180 178 173 191 164 162 153 121 82 43 46 38 26 21 19 8 3 3 353 350 344 340 338 332 329 325 323 318 314 313 301 310 311 299 294 291 289 283 280
200 193 189 182 182 176 186 172 173 160 172 127 116 63 30 44 34 24 15 4 356 354 350 343 340 337 329 329 326 324 318 313 308 301 296 299 294 292 290 288 286 283 280
198 198 189 188 184 176 184 180 173 174 154 165 127 83 75 47 42 26 7 359 356 355 346 329 328 324 319 318 320 317 310 304 298 292 286 287 289 285 286 287 284 283 278
198 194 193 188 184 181 181 180 178 173 180 171 149 145 101 60 37 10 8 354 357 342 325 320 320 318 318 317 314 312 302 296 289 288 287 284 284 282 278 284 285 281 281
196 195 189 189 184 183 182 182 181 174 181 173 174 163 102 63 39 10 358 347 347 322 320 321 321 323 320 317 315 306 300 294 287 282 279 276 277 285 290 291 289 289 287
196 193 188 188 187 184 182 180 177 174 193 179 180 181 136 109 48 3 342 329 327 315 320 321 325 323 315 314 310 305 292 279 271 273 279 276 274 274 279 286 286 285 283
194 193 189 186 187 180 174 177 180 183 190 184 196 180 163 146 132 311 311 304 306 308 308 312 311 309 307 313 312 301 284 278 276 267 266 272 269 267 266 269 278 280 275
193 192 192 188 188 178 177 176 195 199 193 192 188 181 190 182 215 305 301 294 288 283 286 287 294 305 315 323 314 312 282 265 255 242 234 251 296 292 279 271 264 271 282
190 192 192 194 190 189 185 190 190 188 193 193 176 185 194 195 222 268 261 264 266 275 276 277 288 300 298 315 321 296 319 295 35 324 291 276 262 317 305 301 303 296 290
195 194 194 193 191 189 185 180 178 150 175 191 198 196 186 188 218 232 247 259 275 274 273 283 283 294 299 312 312 299 318 310 335 246 304 287 283 316 317 302 299 293 284
198 195 196 196 193 188 186 183 190 195 188 195 168 156 172 213 232 242 253 268 271 271 273 278 287 284 292 293 305 257 257 284 320 314 246 315 300 283 300 301 302 301 294
193 195 194 196 195 186 185 191 193 199 196 163 167 187 210 223 232 244 254 260 265 273 279 284 284 279 284 284 282 283 277 270 266 263 297 298 293 294 288 299 305 303 299
189 194 191 196 197 191 189 195 197 197 191 184 189 202 212 223 240 242 245 255 264 271 273 282 287 284 281 279 274 271 263 267 273 271 281 289 298 292 290 290 287 283 285